Dewpoint
62 63 63 63 62 61 60 60 60 60 59 58 58 57 56 55 56 55 54 53 53 52 52 52 52 52 52 52 51 51 51 50 49 48 49 50 49 50 51 51 52 53 53 53 52 52 53 54 55 53 53 49
61 61 62 62 61 61 61 60 59 59 58 57 57 57 56 56 56 55 55 54 52 52 52 52 51 52 52 51 51 50 50 49 49 48 48 47 48 48 49 50 52 52 52 51 51 50 51 52 52 52 52 47
61 60 60 60 60 60 60 60 59 58 58 58 58 57 56 56 55 55 54 53 52 53 53 52 52 51 52 51 50 50 49 49 48 48 48 47 47 49 49 49 50 50 50 50 49 48 49 51 50 53 50 47
60 60 59 59 59 59 59 59 58 58 58 57 56 55 54 54 53 53 52 53 51 52 53 54 52 52 51 51 50 49 49 48 48 48 48 47 48 48 48 48 47 47 47 47 46 45 46 49 50 46 47 47
60 60 59 59 58 58 58 57 57 57 56 55 54 53 53 52 51 51 51 50 50 53 48 51 52 51 49 49 49 48 48 48 47 47 47 48 46 43 42 42 42 43 43 43 42 42 48 48 44 45 46 47
60 60 59 59 59 58 57 56 56 55 54 52 52 52 50 50 49 49 50 49 49 50 48 50 52 52 51 48 48 48 47 47 47 47 46 47 43 41 40 38 38 39 40 37 38 45 45 38 40 43 44 46
60 60 60 59 58 57 56 55 55 55 53 52 51 50 50 50 48 48 48 47 48 48 49 49 52 51 52 48 48 48 47 47 47 46 47 46 40 34 33 37 36 36 36 31 37 43 36 37 37 41 43 45
59 60 59 58 57 57 56 55 54 54 53 51 50 50 50 51 50 49 47 48 48 48 48 49 50 50 51 50 51 50 48 49 48 47 47 44 36 33 40 33 31 34 34 35 31 31 32 34 36 37 40 44
59 59 59 59 58 56 55 55 55 55 53 52 51 50 49 49 48 48 47 47 46 46 47 47 47 47 46 46 45 47 44 44 43 40 38 36 36 34 32 31 29 29 28 28 29 29 30 31 33 36 39 41
57 58 58 57 57 56 56 55 55 54 52 51 51 50 48 48 47 46 45 45 45 46 47 46 45 44 44 44 44 44 42 41 38 36 34 32 33 30 29 29 30 27 27 26 28 29 31 31 32 35 38 40
57 57 57 57 56 56 55 55 54 53 52 51 50 48 48 47 46 45 44 44 44 44 45 45 45 44 43 43 43 43 41 40 37 30 28 27 29 28 27 27 29 29 28 29 29 30 32 32 31 34 37 40
57 57 56 56 55 55 54 54 53 53 53 52 50 48 47 46 46 45 44 44 44 44 44 44 44 44 43 43 43 42 39 36 31 25 25 26 25 23 26 27 26 26 26 26 28 31 31 31 31 33 36 39
56 56 56 55 55 55 53 54 53 53 53 52 51 50 47 46 45 45 44 44 43 43 43 43 43 44 43 43 42 39 35 32 27 23 23 24 22 23 23 24 25 25 24 25 25 28 29 29 31 32 35 38
55 55 55 55 55 55 53 54 53 52 52 52 51 49 47 46 45 45 44 44 44 43 43 43 43 43 43 43 41 37 33 31 26 22 23 22 21 21 21 20 22 23 22 23 25 26 27 26 28 31 34 36
55 55 55 54 55 54 54 54 53 52 52 51 50 48 46 46 45 44 44 44 43 43 42 42 42 41 42 41 40 35 32 29 25 23 22 22 20 20 20 21 21 22 21 23 24 26 25 23 25 28 33 34
55 54 55 54 55 54 53 52 51 51 50 49 49 48 47 45 44 44 44 43 42 42 41 41 40 40 40 38 36 32 29 26 24 22 24 24 22 21 21 19 18 21 20 21 21 25 24 22 23 26 31 33
55 55 54 53 53 53 52 51 50 50 49 48 47 47 46 45 44 44 43 43 42 41 40 40 39 38 38 36 34 31 28 25 24 23 24 24 25 21 22 18 19 26 18 19 20 20 22 22 22 23 28 31
55 54 54 54 53 51 51 50 50 48 48 47 46 45 45 45 44 43 43 42 41 40 39 39 38 37 36 34 32 29 27 24 22 23 24 25 23 25 20 19 20 19 18 19 19 19 21 21 21 21 23 28
53 53 53 53 53 53 52 51 50 48 47 48 46 45 45 45 43 43 42 42 41 39 38 38 37 35 34 32 28 27 25 23 22 24 25 24 20 21 20 20 20 19 18 17 16 19 20 18 19 21 22 27
52 53 53 53 51 52 51 52 51 50 48 48 48 48 47 47 45 43 42 41 40 39 37 37 36 33 32 29 26 27 26 23 21 22 24 22 19 18 18 20 18 17 17 15 17 18 16 19 21 18 21 24
53 53 53 53 53 52 51 50 50 49 49 49 48 48 49 48 47 46 43 41 40 38 37 36 34 32 30 27 25 26 25 21 21 23 25 20 21 17 17 20 17 17 19 17 17 16 16 19 18 17 19 19
54 54 53 52 52 51 51 51 50 49 48 48 48 48 48 48 47 45 43 41 39 37 36 35 33 31 29 25 25 25 23 20 20 23 21 19 21 19 18 19 17 15 18 20 20 17 18 18 16 18 18 18
52 51 51 52 52 51 51 50 49 49 49 48 48 47 47 47 47 44 41 41 39 36 34 33 31 29 28 25 24 24 21 19 20 22 21 19 19 23 19 19 18 15 19 23 22 19 18 17 13 17 18 20
50 50 49 49 49 48 48 49 48 48 48 47 46 44 46 45 45 44 42 41 38 35 33 31 30 28 28 25 24 23 21 19 20 21 21 20 19 20 21 21 20 18 20 19 18 20 16 15 14 15 20 16
50 48 47 48 47 47 48 49 49 48 47 46 46 44 44 44 45 44 43 41 40 37 36 31 29 28 27 25 23 23 21 19 19 21 20 21 21 19 18 19 19 19 17 16 16 16 16 14 14 19 15 12
48 50 50 47 46 46 48 48 47 47 46 46 45 44 44 43 43 43 43 42 42 42 41 32 30 29 27 25 23 23 22 20 23 23 21 21 20 20 17 16 19 20 16 13 10 9 10 14 15 16 15 14
42 46 47 50 49 48 47 47 46 47 46 44 44 44 43 43 42 42 41 41 41 40 40 39 35 29 27 25 24 23 21 21 20 21 20 20 18 19 19 17 22 18 12 8 11 10 9 7 9 14 14 15
35 41 44 45 48 48 49 48 47 46 46 44 43 43 43 43 43 42 42 41 40 40 39 38 38 32 30 27 25 23 21 20 19 20 19 19 19 18 16 16 19 19 16 9 8 10 4 6 6 5 10 10
30 35 40 42 43 44 44 42 44 44 44 44 42 41 40 40 41 40 41 42 41 41 40 40 40 37 31 27 25 24 22 20 19 20 19 19 19 18 15 14 17 19 17 13 8 7 2 5 8 12 5 10
27 30 32 38 40 39 39 39 37 39 41 42 41 41 40 39 39 39 39 40 41 41 40 39 39 37 37 34 29 28 25 21 20 20 19 19 19 18 16 14 14 16 19 14 15 11 9 16 16 5 3 6
25 26 28 31 35 37 38 38 40 43 44 44 43 42 41 39 39 39 39 38 39 39 39 39 39 36 36 36 35 35 34 29 21 21 20 20 19 18 19 16 13 14 15 16 14 16 15 16 17 9 8 5